"TOA5","AWS1","CR1000","7964","CR1000.Std.14","CPU:AWS1_114.CR1","64363","TBL110"
"TIMESTAMP","RECORD","Wind_spd_WVc(1)","Wind_spd_WVc(2)","Air_Temp_Avg","Humidity_Avg","SW_upper_Wm2_Avg","Rain_Tot","Press_Avg","Issui_Tot","Depth_cm","SR50A_Raw","Quality","Ground_Temp_Avg(1)","Ground_Temp_Avg(2)","SW_lower_Wm2_Avg","Albedo_Avg","SWC_per(1)","SWC_per(2)","Period(1)","Period(2)"
"TS","RN","","","","","","","","","","","","","","","","","","",""
"","","WVc","WVc","Avg","Avg","Avg","Tot","Avg","Tot","Smp","Smp","Smp","Avg","Avg","Avg","Avg","Smp","Smp","Smp","Smp"
"2018-06-10 00:00:00",344365,0.514,162.8,11.79,100,0,0,861.5386,0,-19.82,3.308,188,17.78,16.38,0.3183861,0,50.28,57.74,33.37,35.16
"2018-06-10 00:10:00",344366,0.189,187.8,11.64,100,0,0,861.3575,0,-25.11,3.36,195,17.75,16.38,0.2160538,0,50.28,57.74,33.37,35.16
"2018-06-10 00:20:00",344367,0.15,39.04,11.7,100,0,0,861.4986,0,2.448,3.089,224,17.77,16.38,0.454852,0,50.28,57.74,33.37,35.16
"2018-06-10 00:30:00",344368,0.101,108.7,11.66,100,0,0,861.366,0,2.178,3.093,222,17.72,16.39,0.3866321,0,50.28,57.74,33.37,35.16
"2018-06-10 00:40:00",344369,0.17,92.2,11.54,100,0,0,861.3007,0,-20.6,3.317,186,17.71,16.4,0.3222054,0,50.22,57.74,33.35,35.16
"2018-06-10 00:50:00",344370,0.048,264.4,11.34,100,0,0,861.248,0,-18.86,3.301,181,17.7,16.41,0.2274466,0,50.28,57.74,33.37,35.16
"2018-06-10 01:00:00",344371,0.054,108.9,11.3,100,0,0,861.0963,0,9.27,3.026,436,17.66,16.41,0.375282,0,50.22,57.74,33.35,35.16
"2018-06-10 01:10:00",344372,0.101,103,11.25,100,0,0,861.2248,0,3.385,3.083,260,17.66,16.42,0.4207693,0,50.28,57.74,33.37,35.16
"2018-06-10 01:20:00",344373,0.174,103.6,11.27,100,0,0,861.0879,0,4.407,3.073,250,17.67,16.42,0.4510964,0,50.28,57.74,33.37,35.16
"2018-06-10 01:30:00",344374,0.336,103.7,11.22,100,0,0,861.0879,0,5.827,3.06,352,17.62,16.43,0.3676951,0,50.22,57.74,33.35,35.16
"2018-06-10 01:40:00",344375,0.146,136.4,11.03,100,0,0,861.071,0,19.05,2.932,355,17.55,16.44,0.2350226,0,50.28,57.68,33.37,35.14
"2018-06-10 01:50:00",344376,0.063,67.91,10.68,100,0,0,860.8752,0,-22.58,3.342,203,17.56,16.45,0.1743729,0,50.28,57.68,33.37,35.14
"2018-06-10 02:00:00",344377,0.053,168.5,10.46,100,0,0,860.8351,0,-23.5,3.352,203,17.54,16.45,0.3828695,0,50.28,57.68,33.37,35.14
"2018-06-10 02:10:00",344378,0.043,91.4,10.3,100,0,0,860.9152,0,-23.73,3.354,202,17.5,16.45,0.4624799,0,50.28,57.68,33.37,35.14
"2018-06-10 02:20:00",344379,0.062,73.34,10.36,100,0,0,861.0352,0,-23.32,3.35,196,17.49,16.45,0.5762063,0,50.28,57.68,33.37,35.14
"2018-06-10 02:30:00",344380,0.259,154.1,10.46,100,0,0,860.8415,0,-23.5,3.352,200,17.46,16.44,0.4549003,0,50.28,57.68,33.37,35.14
"2018-06-10 02:40:00",344381,0.095,177.6,10.15,100,0,0,860.8752,0,-23.77,3.357,197,17.4,16.41,0.2615677,0,50.22,57.68,33.35,35.14
"2018-06-10 02:50:00",344382,0.253,169.9,9.84,100,0,0,860.8351,0,14.37,2.984,317,17.37,16.4,0.3525478,0,50.28,57.74,33.37,35.16
"2018-06-10 03:00:00",344383,0.097,171.9,9.58,100,0,0,860.8351,0,13.52,2.993,311,17.39,16.34,0.4132012,0,50.28,57.74,33.37,35.16
"2018-06-10 03:10:00",344384,0.055,166.3,9.46,100,0,0,860.8351,0,-17.81,3.302,186,17.34,16.34,0.4738545,0,50.28,57.68,33.37,35.14
"2018-06-10 03:20:00",344385,0.283,168.5,9.15,100,0,0,860.8388,0,14.39,2.987,302,17.29,16.37,0.4549004,0,50.28,57.68,33.37,35.14
"2018-06-10 03:30:00",344386,0.225,197.7,9.19,100,0,0,860.7118,0,-24.19,3.366,197,17.27,16.37,0.7088864,0,50.28,57.74,33.37,35.16
"2018-06-10 03:40:00",344387,0.313,188.2,9.03,100,0,0,860.6161,0,-14.94,3.275,186,17.24,16.37,0.5003904,0,50.28,57.74,33.37,35.16
"2018-06-10 03:50:00",344388,0.35,182.6,9.22,100,0,0,860.5882,0,-17.61,3.301,170,17.22,16.37,0.8643107,0,50.28,57.68,33.37,35.14
"2018-06-10 04:00:00",344389,0.37,181.6,9.25,100,0,0,860.3992,0,3.318,3.094,204,17.18,16.37,0.8415657,0,50.28,57.68,33.37,35.14
"2018-06-10 04:10:00",344390,0.161,182.9,9.38,100,0,0,860.5075,0,-30.86,3.43,245,17.13,16.37,1.110715,0,50.22,57.68,33.35,35.14
"2018-06-10 04:20:00",344391,0.057,206.9,9.35,100,0,0,860.6517,0,-13.31,3.259,170,17.14,16.37,1.205486,0,50.28,57.68,33.37,35.14
"2018-06-10 04:30:00",344392,0.401,201.6,9.07,100,0,0,860.6169,0,-16.29,3.288,170,17.04,16.37,1.319211,0,50.28,57.68,33.37,35.14
"2018-06-10 04:40:00",344393,0.365,178.8,9.02,100,0.4678636,0,860.4269,0,-12.96,3.256,170,17.06,16.4,1.535289,2.249,50.28,57.68,33.37,35.14
"2018-06-10 04:50:00",344394,0.361,200.4,9.39,98.5,5.468893,0,860.4372,0,14.21,2.983,303,17.02,16.4,2.892408,0.611,50.22,57.68,33.35,35.14
"2018-06-10 05:00:00",344395,0.432,288.8,10.99,83,14.82223,0,860.6992,0,28.07,2.843,430,16.99,16.4,5.326125,0.372,50.28,57.68,33.37,35.14
"2018-06-10 05:10:00",344396,0.093,228.7,10.03,92.6,23.31848,0,861.0745,0,-19.42,3.315,182,16.94,16.39,4.708219,0.204,50.28,57.68,33.37,35.14
"2018-06-10 05:20:00",344397,0.159,105.3,9.53,99.7,22.85061,0,861.1013,0,8.37,3.045,282,16.9,16.34,3.980378,0.174,50.28,57.68,33.37,35.14
"2018-06-10 05:30:00",344398,0.493,182,9.56,99.7,29.99045,0,860.9651,0,6.627,3.061,266,16.88,16.32,5.16691,0.173,50.28,57.68,33.37,35.14
"2018-06-10 05:40:00",344399,0.366,181.2,9.67,92.1,54.24465,0,861.2315,0,25.34,2.874,307,16.86,16.32,10.20114,0.185,50.28,57.62,33.37,35.13
"2018-06-10 05:50:00",344400,0.18,193.8,10.57,83.8,125.871,0,861.1285,0,23.74,2.885,324,16.82,16.31,26.27429,0.209,50.28,57.62,33.37,35.13
"2018-06-10 06:00:00",344401,0.161,171.1,11.45,81.8,182.5061,0,860.8386,0,21.96,2.9,372,16.76,16.31,29.83009,0.17,50.28,57.68,33.37,35.14
"2018-06-10 06:10:00",344402,0.284,237.1,12.71,66.97,153.4278,0,860.8702,0,19.1,2.915,282,16.76,16.32,35.22066,0.233,50.28,57.68,33.37,35.14
"2018-06-10 06:20:00",344403,0.379,333.1,14.35,58.81,136.3056,0,861.1346,0,14.46,2.96,259,16.74,16.37,33.45413,0.245,50.28,57.68,33.37,35.14
"2018-06-10 06:30:00",344404,0.192,347.5,13.66,67.18,190.0942,0,861.1744,0,-25.99,3.357,191,16.65,16.36,41.99488,0.228,50.28,57.68,33.37,35.14
"2018-06-10 06:40:00",344405,0.229,122.3,13.97,70.88,204.5524,0,861.1306,0,13.87,2.965,250,16.6,16.32,36.98305,0.178,50.28,57.68,33.37,35.14
"2018-06-10 06:50:00",344406,0.137,76.16,14.67,64.92,179.9486,0,861.3408,0,-25.61,3.347,192,16.56,16.29,28.36342,0.158,50.28,57.68,33.37,35.14
"2018-06-10 07:00:00",344407,0.304,127.6,14.23,73.35,147.4549,0,861.4692,0,14.4,2.961,367,16.54,16.25,22.02697,0.149,50.28,57.62,33.37,35.13
"2018-06-10 07:10:00",344408,0.249,112.3,14,71.05,147.4063,0,861.7198,0,13.83,2.968,241,16.54,16.17,21.61248,0.147,50.28,57.62,33.37,35.13
"2018-06-10 07:20:00",344409,0.462,121.9,13.83,74.93,214.5761,0,861.7051,0,15.98,2.947,376,16.5,16.16,39.44951,0.176,50.28,57.62,33.37,35.13
"2018-06-10 07:30:00",344410,0.481,135.2,14.49,70.09,269.2491,0,861.2775,0,13.52,2.965,307,16.49,16.15,51.31438,0.187,50.28,57.62,33.37,35.13
"2018-06-10 07:40:00",344411,0.39,320,15.45,62.84,246.8064,0,861.3323,0,15.08,2.946,259,16.49,16.15,40.44204,0.164,50.33,57.62,33.38,35.13
"2018-06-10 07:50:00",344412,0.286,303.3,15.46,65.52,210.8206,0,861.3829,0,-23.84,3.326,237,16.49,16.15,32.84398,0.156,50.28,57.62,33.37,35.13
"2018-06-10 08:00:00",344413,0.077,52.21,15.78,65.58,306.4641,0,861.5872,0,-17.2,3.258,193,16.49,16.15,47.70279,0.156,50.28,57.62,33.37,35.13
"2018-06-10 08:10:00",344414,0.292,149.9,15.85,66.03,314.5841,0,861.6293,0,4.339,3.05,372,16.49,16.15,49.13145,0.156,50.28,57.62,33.37,35.13
"2018-06-10 08:20:00",344415,0.864,128.7,15.32,70.1,318.876,0,861.3723,0,-25.12,3.34,235,16.49,16.13,51.34075,0.161,50.28,57.62,33.37,35.13
"2018-06-10 08:30:00",344416,0.664,142.6,15.23,70.38,265.0114,0,861.2796,0,14.98,2.949,283,16.49,16.16,43.29176,0.163,50.28,57.62,33.37,35.13
"2018-06-10 08:40:00",344417,0.632,138.9,15.28,70.72,222.0219,0,861.1091,0,-22.86,3.317,214,16.49,16.11,36.36068,0.164,50.28,57.62,33.37,35.13
"2018-06-10 08:50:00",344418,0.28,344.8,15.83,70.65,263.4904,0,861.1975,0,15.78,2.937,277,16.49,16.06,43.65934,0.166,50.28,57.62,33.37,35.13
"2018-06-10 09:00:00",344419,0.433,8.78,16.1,71.26,222.6822,0,861.3513,0,24.41,2.854,288,16.48,16.06,35.70888,0.16,50.28,57.62,33.37,35.13
"2018-06-10 09:10:00",344420,0.343,326.7,15.67,74.23,200.4604,0,861.3408,0,19.44,2.904,322,16.47,16.06,31.52522,0.157,50.28,57.62,33.37,35.13
"2018-06-10 09:20:00",344421,0.159,356.7,15.63,75.68,252.9022,0,861.425,0,23.59,2.863,290,16.45,16.06,40.71865,0.161,50.28,57.62,33.37,35.13
"2018-06-10 09:30:00",344422,0.298,120.3,15.92,76.21,319.3083,0,861.3408,0,24.19,2.854,326,16.42,16.06,52.34877,0.164,50.28,57.62,33.37,35.13
"2018-06-10 09:40:00",344423,0.283,8.1,16.57,73.95,356.3277,0,861.6419,0,20.93,2.885,289,16.49,16.06,58.82889,0.164,50.28,57.62,33.37,35.13
"2018-06-10 09:50:00",344424,0.516,331.1,16.32,77.64,499.3311,0,861.8399,0,14.5,2.949,259,16.52,16.06,82.82429,0.166,50.28,57.62,33.37,35.13
"2018-06-10 10:00:00",344425,0.391,41.42,16.91,76.19,734.3112,0,861.8441,0,-15.23,3.233,179,16.51,16.06,122.5539,0.167,50.28,57.62,33.37,35.13
"2018-06-10 10:10:00",344426,0.402,56.26,17.36,71.65,728.9582,0,861.7194,0,15.2,2.936,254,16.47,16.06,119.4843,0.164,50.28,57.56,33.37,35.12
"2018-06-10 10:20:00",344427,0.611,5.097,17.7,70.33,755.4444,0,861.6928,0,-25.25,3.325,200,16.54,16.06,121.4511,0.16,50.28,57.62,33.37,35.13
"2018-06-10 10:30:00",344428,0.376,0.739,18.07,71.23,684.9626,0,861.6776,0,26.32,2.824,304,16.58,16.01,110.6578,0.16,50.28,57.56,33.37,35.12
"2018-06-10 10:40:00",344429,0.383,36.63,18.68,69.29,801.4301,0,861.5012,0,15.93,2.92,253,16.58,15.91,130.7641,0.162,50.22,57.56,33.35,35.12
"2018-06-10 10:50:00",344430,0.314,196.9,18.91,68.88,690.2598,0,861.29,0,14.61,2.933,260,16.56,15.89,108.8767,0.157,50.22,57.56,33.35,35.12
"2018-06-10 11:00:00",344431,0.396,114.5,19.22,67.23,902.9988,0,861.2925,0,15.99,2.919,230,16.66,15.88,146.8403,0.162,50.22,57.56,33.35,35.12
"2018-06-10 11:10:00",344432,0.27,108.6,19.92,66.66,924.5319,0,861.2693,0,18.59,2.89,349,16.65,15.88,149.0482,0.16,50.22,57.56,33.35,35.12
"2018-06-10 11:20:00",344433,0.652,358.9,20.12,64.43,1081.952,0,861.0344,0,16.01,2.914,293,16.71,15.88,176.8793,0.163,50.22,57.56,33.35,35.12
"2018-06-10 11:30:00",344434,0.335,72.04,20.25,64.97,759.23,0,861.0195,0,19.05,2.886,248,16.7,15.88,118.6679,0.155,50.17,57.56,33.34,35.12
"2018-06-10 11:40:00",344435,0.336,317.8,19.33,68.47,484.8565,0,861.0197,0,14.13,2.937,219,16.79,15.88,72.01746,0.148,50.17,57.56,33.34,35.12
"2018-06-10 11:50:00",344436,0.278,330.5,19.09,69.23,379.2868,0,861.145,0,14.81,2.933,263,16.84,15.86,55.31081,0.145,50.17,57.56,33.34,35.12
"2018-06-10 12:00:00",344437,0.246,304.5,18.43,72.63,248.2155,0,861.2134,0,15.99,2.924,316,16.92,15.82,33.98007,0.137,50.11,57.51,33.33,35.1
"2018-06-10 12:10:00",344438,0.217,291.4,18.15,73.05,206.0837,0,860.9973,0,14.33,2.941,276,16.99,15.78,27.77671,0.135,50.11,57.51,33.33,35.1
"2018-06-10 12:20:00",344439,0.07,280.7,17.88,74.15,168.4028,0,861.0524,0,-17.77,3.254,172,17.08,15.8,21.88812,0.129,50.11,57.51,33.33,35.1
"2018-06-10 12:30:00",344440,0.108,341.8,17.65,75.76,174.0165,0,861.0002,0,17.03,2.917,267,17.11,15.8,23.99528,0.137,50.11,57.51,33.33,35.1
"2018-06-10 12:40:00",344441,0.236,195,17.86,76.2,324.2127,0,860.7165,0,16.48,2.921,254,17.2,15.8,51.34444,0.158,50.11,57.51,33.33,35.1
"2018-06-10 12:50:00",344442,0.511,113.2,18.19,73.35,314.3008,0,860.5431,0,16.86,2.914,244,17.27,15.8,49.88172,0.159,50.11,57.51,33.33,35.1
"2018-06-10 13:00:00",344443,0.426,85.8,18.7,70.08,285.2599,0,860.5689,0,20.42,2.88,292,17.28,15.8,45.08038,0.158,50.11,57.51,33.33,35.1
"2018-06-10 13:10:00",344444,0.355,141.5,18.35,71.89,211.4807,0,860.3948,0,16.63,2.918,242,17.37,15.8,31.71088,0.15,50.11,57.51,33.33,35.1
"2018-06-10 13:20:00",344445,0.373,122,18.26,71.47,235.31,0,860.3318,0,15.79,2.925,237,17.37,15.8,36.81539,0.156,50.06,57.51,33.31,35.1
"2018-06-10 13:30:00",344446,0.345,15.96,18.44,73.25,194.6905,0,860.3002,0,17.93,2.905,290,17.44,15.8,29.38031,0.151,50.06,57.51,33.31,35.1
"2018-06-10 13:40:00",344447,0.352,10.64,18.11,76.86,205.0193,0,860.2201,0,14.11,2.942,237,17.48,15.8,31.61614,0.154,50.11,57.51,33.33,35.1
"2018-06-10 13:50:00",344448,0.383,339.6,17.92,77.06,171.8163,0,860.1359,0,16.46,2.922,266,17.45,15.8,25.6893,0.149,50.06,57.45,33.31,35.09
"2018-06-10 14:00:00",344449,0.509,333.1,17.78,78.15,228.1922,0,860.2875,0,-18.67,3.263,193,17.45,15.8,35.47768,0.155,50.06,57.45,33.31,35.09
"2018-06-10 14:10:00",344450,0.344,13.48,17.61,78.02,218.7399,0,860.2223,0,14.32,2.943,232,17.46,15.8,34.1665,0.156,50.06,57.45,33.31,35.09
"2018-06-10 14:20:00",344451,0.422,354.7,17.74,77.1,263.5569,0,860.0348,0,-18.41,3.259,191,17.56,15.8,42.35949,0.161,50.06,57.45,33.31,35.09
"2018-06-10 14:30:00",344452,0.433,12.23,17.78,78.72,249.4747,0,860.0242,0,-19.97,3.276,178,17.54,15.81,39.3847,0.158,50.06,57.45,33.31,35.09
"2018-06-10 14:40:00",344453,0.392,353.5,17.51,79.39,232.6531,0,859.8958,0,-25,3.325,200,17.54,15.82,36.31896,0.156,50.01,57.45,33.3,35.09
"2018-06-10 14:50:00",344454,0.315,324.3,17.52,78.96,194.722,0,859.8197,0,14.18,2.945,246,17.54,15.87,30.31254,0.156,50.06,57.45,33.31,35.09
"2018-06-10 15:00:00",344455,0.363,6.297,17.62,79.85,168.8686,0,859.8264,0,14.58,2.942,234,17.56,15.93,25.84467,0.153,50.01,57.45,33.3,35.09
"2018-06-10 15:10:00",344456,0.304,270.5,17.36,82.7,158.4219,0,859.9311,0,18.95,2.899,351,17.62,15.95,23.93095,0.151,50.01,57.45,33.3,35.09
"2018-06-10 15:20:00",344457,0.167,348.3,17.47,83.3,149.5945,0,860.2053,0,18.94,2.9,306,17.67,15.96,22.7183,0.152,50.01,57.45,33.3,35.09
"2018-06-10 15:30:00",344458,0.393,25.1,17.27,84.7,149.956,0,860.296,0,-21.31,3.291,193,17.65,15.96,22.98356,0.153,50.01,57.39,33.3,35.07
"2018-06-10 15:40:00",344459,0.208,40.42,17.13,86.6,123.0532,0,860.237,0,19.67,2.894,396,17.64,15.97,18.30348,0.149,49.95,57.39,33.28,35.07
"2018-06-10 15:50:00",344460,0.398,28.15,17.04,88.1,124.1537,0,860.1738,0,19.87,2.892,353,17.63,15.97,19.23571,0.154,49.95,57.39,33.28,35.07
"2018-06-10 16:00:00",344461,0.34,152.8,17.24,87.5,159.4398,0,859.8242,0,18.75,2.902,323,17.63,15.95,25.48845,0.16,50.01,57.39,33.3,35.07
"2018-06-10 16:10:00",344462,0.07,140.7,17.47,84.9,148.1756,0,859.9127,0,18.91,2.899,314,17.63,15.93,23.28673,0.157,49.95,57.39,33.28,35.07
"2018-06-10 16:20:00",344463,0.089,342.5,17.32,88.4,124.8533,0,859.9147,0,18.38,2.906,246,17.63,15.92,18.91739,0.152,49.95,57.39,33.28,35.07
"2018-06-10 16:30:00",344464,0.125,324.4,17.18,89.1,107.9334,0,859.8916,0,18.3,2.907,269,17.63,15.92,16.04113,0.149,49.95,57.39,33.28,35.07
"2018-06-10 16:40:00",344465,0.079,304.6,17.11,88.8,98.7916,0,859.82,0,17.43,2.915,267,17.63,15.9,14.79816,0.15,49.95,57.39,33.28,35.07
"2018-06-10 16:50:00",344466,0.204,328.3,17.06,91,93.06125,0,859.7526,0,18.39,2.907,294,17.63,15.9,13.75982,0.148,49.95,57.39,33.28,35.07
"2018-06-10 17:00:00",344467,0.002,76.49,17.06,93,101.7668,0,859.6915,0,18.12,2.909,264,17.63,15.91,15.39312,0.151,49.95,57.39,33.28,35.07
"2018-06-10 17:10:00",344468,0,0,17.31,89.9,92.58569,0,859.5714,0,18.27,2.906,289,17.63,15.96,13.75603,0.148,49.95,57.39,33.28,35.07
"2018-06-10 17:20:00",344469,0.005,104.1,17.32,90,78.95547,0,859.5293,0,17.77,2.912,288,17.63,15.97,11.33831,0.144,49.95,57.33,33.28,35.06
"2018-06-10 17:30:00",344470,0.008,154.4,17.2,89,72.6788,0,859.3692,0,16.43,2.925,258,17.63,15.99,10.26208,0.141,49.95,57.33,33.28,35.06
"2018-06-10 17:40:00",344471,0.033,81.7,17.11,86.1,54.48945,0,859.3229,0,15.79,2.932,277,17.63,16,7.359289,0.135,49.9,57.33,33.27,35.06
"2018-06-10 17:50:00",344472,0.079,12.47,16.92,92.7,44.18031,0,859.3356,0,16.96,2.922,277,17.63,16.03,5.835893,0.132,49.95,57.39,33.28,35.07
"2018-06-10 18:00:00",344473,0.044,337.1,16.76,98.9,36.25686,0,859.3713,0,16.59,2.926,262,17.63,16.05,4.736926,0.131,49.95,57.33,33.28,35.06
"2018-06-10 18:10:00",344474,0.061,204.8,16.68,96.5,25.03591,0,859.5587,0,-24.46,3.325,206,17.66,16.06,3.274163,0.13,49.9,57.33,33.27,35.06
"2018-06-10 18:20:00",344475,0.094,103.2,16.64,93,13.81495,0,859.5566,0,-24.95,3.33,195,17.7,16.06,1.667398,0.121,49.9,57.33,33.27,35.06
"2018-06-10 18:30:00",344476,0.078,134.1,16.39,91.7,12.04632,0,859.4387,0,-23.17,3.314,194,17.71,16.06,1.455184,0.121,49.9,57.33,33.27,35.06
"2018-06-10 18:40:00",344477,0.105,101,16.37,89.5,6.913369,0,859.3271,0,18.57,2.909,262,17.7,16.06,0.8602258,0.124,49.9,57.33,33.27,35.06
"2018-06-10 18:50:00",344478,0.1,166,16.21,96.2,3.336811,0,859.4387,0,17.08,2.923,285,17.65,16.06,0.3069528,0.093,49.95,57.33,33.28,35.06
"2018-06-10 19:00:00",344479,0.09,301.6,16.14,96.9,1.745046,0,859.5461,0,-24.17,3.325,183,17.62,16.06,0.2235829,0.132,49.9,57.33,33.27,35.06
"2018-06-10 19:10:00",344480,0,0,16.12,97.7,0.1257691,0,859.5251,0,18.9,2.906,298,17.59,16.06,0.03410587,0,49.9,57.33,33.27,35.06
"2018-06-10 19:20:00",344481,0.002,43.77,16.07,99.3,0,0,859.5208,0,16.34,2.932,261,17.56,16.06,0.03031633,0,49.9,57.33,33.27,35.06
"2018-06-10 19:30:00",344482,0.09,33.44,15.98,99.8,0,0,859.5019,0,21.96,2.878,312,17.6,16.06,0,0,49.9,57.33,33.27,35.06
"2018-06-10 19:40:00",344483,0.025,34.9,15.77,100,0,0,859.4555,0,20.11,2.896,266,17.62,16.07,0,0,49.9,57.33,33.27,35.06
"2018-06-10 19:50:00",344484,0.099,336,15.74,100,0,0,859.4766,0,17.65,2.921,244,17.6,16.08,0,0,49.9,57.27,33.27,35.05
"2018-06-10 20:00:00",344485,0.071,73.24,15.62,100,0,0,859.3207,0,18.05,2.918,243,17.54,16.13,0,0,49.9,57.27,33.27,35.05
"2018-06-10 20:10:00",344486,0.679,202.6,15.54,100,0,0,859.3187,0,18.05,2.918,250,17.52,16.17,0.09852806,0,49.9,57.33,33.27,35.06
"2018-06-10 20:20:00",344487,0.436,150.6,15.45,100,0,0,859.3145,0,19.64,2.903,269,17.53,16.19,0.01136862,0,49.9,57.33,33.27,35.06
"2018-06-10 20:30:00",344488,0.542,33.28,15.36,100,0,0,859.2555,0,18.04,2.919,250,17.54,16.2,0.02652679,0,49.9,57.33,33.27,35.06
"2018-06-10 20:40:00",344489,0.165,211.2,15.39,100,0,0,859.2892,0,17.23,2.926,244,17.54,16.2,0.2273725,0,49.9,57.27,33.27,35.05
"2018-06-10 20:50:00",344490,0.038,326.8,15.45,100,0,0,859.3187,0,18.2,2.917,246,17.54,16.2,0.2235829,0,49.9,57.33,33.27,35.06
"2018-06-10 21:00:00",344491,0.013,354.6,15.32,100,0,0,859.3166,0,16.14,2.937,245,17.52,16.18,0.2235829,0,49.9,57.27,33.27,35.05
"2018-06-10 21:10:00",344492,0,0,15.35,100,0,0,859.3187,0,16.37,2.935,252,17.48,16.18,0.181898,0,49.84,57.27,33.26,35.05
"2018-06-10 21:20:00",344493,0.061,178.1,15.3,100,0,0,859.3187,0,15.73,2.941,259,17.45,16.17,0,0,49.9,57.27,33.27,35.05
"2018-06-10 21:30:00",344494,0,0,15.34,100,0,0,859.2913,0,16.19,2.937,266,17.45,16.17,0.189477,0,49.9,57.27,33.27,35.05
"2018-06-10 21:40:00",344495,0.047,296.8,15.34,100,0,0,859.2829,0,16.08,2.938,261,17.43,16.16,0.2273725,0,49.9,57.27,33.27,35.05
"2018-06-10 21:50:00",344496,0.383,132.7,15.29,100,0,0,859.226,0,17.32,2.926,274,17.38,16.18,0.1856875,0,49.9,57.27,33.27,35.05
"2018-06-10 22:00:00",344497,0.094,203.6,15.31,100,0,0,859.285,0,17.89,2.92,274,17.37,16.18,0.2235829,0,49.9,57.27,33.27,35.05
"2018-06-10 22:10:00",344498,0,0,15.24,100,0,0,859.2007,0,18.18,2.918,262,17.36,16.19,0.2273725,0,49.9,57.27,33.27,35.05
"2018-06-10 22:20:00",344499,0.107,117.3,15.12,100,0,0,859.068,0,18.58,2.915,283,17.36,16.19,0.03789541,0,49.9,57.27,33.27,35.05
"2018-06-10 22:30:00",344500,0.293,257.3,15.06,100,0,0,858.9521,0,19.67,2.904,276,17.35,16.19,0.2538992,0,49.9,57.27,33.27,35.05
"2018-06-10 22:40:00",344501,0.317,200.7,15.16,100,0,0,858.8216,0,19.57,2.905,302,17.31,16.19,0.2122143,0,49.9,57.27,33.27,35.05
"2018-06-10 22:50:00",344502,0.422,282.5,15.35,97,0.0471634,0,858.8111,0,18.97,2.909,302,17.28,16.19,0.5040089,0.707,49.9,57.27,33.27,35.05
"2018-06-10 23:00:00",344503,0.261,354.8,15.3,98.5,0,0,858.7838,0,19.56,2.905,284,17.28,16.19,0.1553712,0,49.84,57.22,33.26,35.03
"2018-06-10 23:10:00",344504,0.034,194.3,15.14,100,0,0,858.5836,0,19.36,2.907,297,17.25,16.19,0,0,49.9,57.27,33.27,35.05
"2018-06-10 23:20:00",344505,0.016,161.9,15.04,100,0,0,858.5583,0,16.68,2.934,293,17.19,16.19,0,0,49.9,57.22,33.27,35.03
"2018-06-10 23:30:00",344506,0.107,232.3,15,100,0,0,858.3983,0,17.26,2.927,288,17.21,16.19,0.1364235,0,49.9,57.22,33.27,35.03
"2018-06-10 23:40:00",344507,0.138,28.51,15.12,100,0,0,858.3077,0,17.66,2.924,275,17.2,16.19,0.1970561,0,49.9,57.22,33.27,35.03
"2018-06-10 23:50:00",344508,0.192,111.7,14.96,100,0,0,858.2867,0,17.34,2.928,253,17.19,16.19,0,0,49.9,57.22,33.27,35.03
